This is the latest recevied weather packets stored in our database for station/object KJ4UBX-11. If no packets are shown the sender has not sent any weather packets the latest 1 day(s).
| Time | Temp. | Humidity | Pressure | Rain* | Wind** | Luminosity | Snow |
|---|---|---|---|---|---|---|---|
| 1778041441 | 15.56° C | 75% | 1007 hPa | - | - | - | - |
| 1778040859 | 15.56° C | 74% | 1006.9 hPa | - | - | - | - |
| 1778039692 | 15.56° C | 74% | 1006.5 hPa | - | - | - | - |
| 1778038526 | 15.56° C | 73% | 1006.6 hPa | - | - | - | - |
| 1778037943 | 15.56° C | 72% | 1006.5 hPa | - | - | - | - |
| 1778037360 | 16.11° C | 71% | 1006.5 hPa | - | - | - | - |
| 1778036778 | 16.67° C | 68% | 1006.5 hPa | - | - | - | - |
| 1778035613 | 17.22° C | 67% | 1006.6 hPa | - | - | - | - |
| 1778035030 | 17.22° C | 66% | 1006.7 hPa | - | - | - | - |
| 1778034448 | 17.78° C | 64% | 1006.6 hPa | - | - | - | - |
| 1778033865 | 17.78° C | 64% | 1006.8 hPa | - | - | - | - |
| 1778033282 | 17.78° C | 63% | 1006.7 hPa | - | - | - | - |
| 1778032698 | 17.78° C | 63% | 1006.8 hPa | - | - | - | - |
| 1778032115 | 18.33° C | 61% | 1006.7 hPa | - | - | - | - |
| 1778031532 | 18.33° C | 62% | 1006.8 hPa | - | - | - | - |
| 1778030949 | 18.33° C | 61% | 1006.6 hPa | - | - | - | - |
| 1778030366 | 18.89° C | 61% | 1006.8 hPa | - | - | - | - |
| 1778029783 | 18.33° C | 62% | 1006.6 hPa | - | - | - | - |
| 1778028617 | 18.89° C | 60% | 1006.4 hPa | - | - | - | - |
| 1778028034 | 18.89° C | 60% | 1006.4 hPa | - | - | - | - |
| 1778027451 | 19.44° C | 58% | 1006.1 hPa | - | - | - | - |
| 1778026869 | 19.44° C | 57% | 1005.8 hPa | - | - | - | - |
| 1778022786 | 20.56° C | 54% | 1005.1 hPa | - | - | - | - |
| 1778021037 | 20.56° C | 52% | 1003.4 hPa | - | - | - | - |
| 1778020455 | 21.11° C | 51% | 1003.3 hPa | - | - | - | - |
* Rain since midnight (hover to see other rain measurements)
** Current wind speed in m/s (hover to see current wind gust speed)